SAS717 EGKK-LEAL

Flight info

Callsign SAS717
Flight time 2h 12m
Altitude 35000
Route SFD Y47 BENBO UY47 DRAKE L151 SITET UN859 SOPIL/N0459F390 DCT BALAN DCT LMG DCT PIMQO DCT AGN DCT ANETO DCT POSSY DCT XIMPE DCT RIMES N860 VLC
Aircraft B736/M-SDE2E3FGHIRWXY/LB1

Departure

Time 2026-05-05 12:44
Airport London Gatwick Airport (EGKK)

Arrival

Time 2026-05-05 14:57
Airport Alicante-Elche Miguel Hernández Airport (LEAL)
Time Latitude Longitude Altitude Speed Heading
2026-05-05 12:02 51.15575 -0.17762 204 ft 0 kts 347°
2026-05-05 12:21 51.15561 -0.17757 216 ft 2 kts 346°
2026-05-05 12:21 51.15545 -0.17750 204 ft 2 kts 346°
2026-05-05 12:22 51.15530 -0.17744 215 ft 2 kts 346°
2026-05-05 12:22 51.15515 -0.17734 210 ft 2 kts 308°
2026-05-05 12:22 51.15511 -0.17715 207 ft 1 kts 257°
2026-05-05 12:26 51.15511 -0.17720 204 ft 2 kts 257°
2026-05-05 12:26 51.15505 -0.17760 204 ft 6 kts 257°
2026-05-05 12:26 51.15493 -0.17846 204 ft 10 kts 258°
2026-05-05 12:26 51.15475 -0.17976 214 ft 14 kts 257°
2026-05-05 12:27 51.15452 -0.18143 204 ft 16 kts 258°
2026-05-05 12:27 51.15402 -0.18279 210 ft 15 kts 181°
2026-05-05 12:27 51.15299 -0.18253 204 ft 15 kts 166°
2026-05-05 12:27 51.15203 -0.18243 204 ft 14 kts 216°
2026-05-05 12:28 51.15174 -0.18387 204 ft 14 kts 254°
2026-05-05 12:28 51.15153 -0.18529 204 ft 13 kts 261°
2026-05-05 12:28 51.15142 -0.18637 212 ft 8 kts 257°
2026-05-05 12:28 51.15131 -0.18720 203 ft 7 kts 258°
2026-05-05 12:29 51.15121 -0.18794 206 ft 7 kts 258°
2026-05-05 12:29 51.15110 -0.18869 212 ft 8 kts 258°
2026-05-05 12:29 51.15100 -0.18952 210 ft 8 kts 258°
2026-05-05 12:29 51.15089 -0.19032 204 ft 7 kts 258°
2026-05-05 12:30 51.15078 -0.19111 204 ft 8 kts 258°
2026-05-05 12:30 51.15063 -0.19210 206 ft 10 kts 246°
2026-05-05 12:30 51.14999 -0.19270 210 ft 11 kts 196°
2026-05-05 12:30 51.14954 -0.19367 210 ft 13 kts 257°
2026-05-05 12:31 51.14933 -0.19520 206 ft 16 kts 258°
2026-05-05 12:31 51.14908 -0.19702 210 ft 18 kts 258°
2026-05-05 12:31 51.14877 -0.19908 205 ft 21 kts 256°
2026-05-05 12:31 51.14844 -0.20148 203 ft 24 kts 257°
2026-05-05 12:32 51.14807 -0.20416 209 ft 25 kts 257°
2026-05-05 12:32 51.14771 -0.20678 203 ft 24 kts 258°
2026-05-05 12:32 51.14738 -0.20918 210 ft 20 kts 258°
2026-05-05 12:32 51.14713 -0.21091 204 ft 12 kts 257°
2026-05-05 12:33 51.14698 -0.21201 204 ft 0 kts 257°
2026-05-05 12:34 51.14695 -0.21222 209 ft 4 kts 259°
2026-05-05 12:34 51.14687 -0.21286 208 ft 8 kts 257°
2026-05-05 12:34 51.14652 -0.21338 204 ft 0 kts 184°
2026-05-05 12:35 51.14647 -0.21337 204 ft 1 kts 176°
2026-05-05 12:36 51.14638 -0.21335 204 ft 1 kts 169°
2026-05-05 12:36 51.14629 -0.21332 204 ft 1 kts 168°
2026-05-05 12:36 51.14622 -0.21330 204 ft 1 kts 168°
2026-05-05 12:36 51.14620 -0.21329 204 ft 0 kts 168°
2026-05-05 12:39 51.14617 -0.21328 204 ft 2 kts 168°
2026-05-05 12:39 51.14577 -0.21308 208 ft 8 kts 157°
2026-05-05 12:39 51.14536 -0.21257 209 ft 8 kts 128°
2026-05-05 12:39 51.14520 -0.21181 208 ft 7 kts 89°
2026-05-05 12:40 51.14526 -0.21129 213 ft 0 kts 77°
2026-05-05 12:40 51.14527 -0.21124 211 ft 2 kts 77°
2026-05-05 12:41 51.14534 -0.21075 206 ft 7 kts 77°
2026-05-05 12:41 51.14548 -0.20977 208 ft 12 kts 78°
2026-05-05 12:41 51.14568 -0.20827 212 ft 16 kts 77°
2026-05-05 12:41 51.14593 -0.20652 208 ft 16 kts 77°
2026-05-05 12:42 51.14595 -0.20638 208 ft 0 kts 77°
2026-05-05 12:44 51.14607 -0.20549 210 ft 33 kts 77°
2026-05-05 12:44 51.14718 -0.19754 211 ft 111 kts 77°
2026-05-05 12:44 51.14938 -0.18221 266 ft 166 kts 77°
2026-05-05 12:44 51.15154 -0.16411 1114 ft 163 kts 77°
2026-05-05 12:45 51.15329 -0.14588 1988 ft 172 kts 75°
2026-05-05 12:45 51.15624 -0.12616 2648 ft 199 kts 72°
2026-05-05 12:45 51.15987 -0.10308 3160 ft 222 kts 73°
2026-05-05 12:45 51.16054 -0.07869 4193 ft 225 kts 106°
2026-05-05 12:46 51.15122 -0.05859 5129 ft 238 kts 141°
2026-05-05 12:46 51.13496 -0.04776 5657 ft 266 kts 165°
2026-05-05 12:46 51.11654 -0.04160 5926 ft 272 kts 167°
2026-05-05 12:46 51.09825 -0.03602 5953 ft 271 kts 171°
2026-05-05 12:47 51.07910 -0.03386 6441 ft 278 kts 177°
2026-05-05 12:47 51.05974 -0.03340 7444 ft 279 kts 179°
2026-05-05 12:47 51.04021 -0.03316 8424 ft 283 kts 179°
2026-05-05 12:47 51.02045 -0.03285 9412 ft 286 kts 178°
2026-05-05 12:48 51.00032 -0.03243 10255 ft 293 kts 178°
2026-05-05 12:48 50.97907 -0.03188 10562 ft 320 kts 178°
2026-05-05 12:48 50.95599 -0.03118 10918 ft 341 kts 178°
2026-05-05 12:48 50.94013 -0.03067 11402 ft 345 kts 178°
2026-05-05 12:49 50.91586 -0.02986 12255 ft 350 kts 178°
2026-05-05 12:49 50.89132 -0.02900 13085 ft 357 kts 177°
2026-05-05 12:49 50.86628 -0.02811 13971 ft 359 kts 178°
2026-05-05 12:49 50.84121 -0.02719 14804 ft 364 kts 177°
2026-05-05 12:50 50.81576 -0.02625 15613 ft 368 kts 178°
2026-05-05 12:50 50.79003 -0.02528 16461 ft 372 kts 178°
2026-05-05 12:50 50.76411 -0.02432 17319 ft 375 kts 178°
2026-05-05 12:50 50.73784 -0.02335 18157 ft 379 kts 178°
2026-05-05 12:51 50.71133 -0.02237 18860 ft 383 kts 178°
2026-05-05 12:51 50.68456 -0.02139 19583 ft 386 kts 178°
2026-05-05 12:51 50.65761 -0.02039 20322 ft 389 kts 178°
2026-05-05 12:51 50.63035 -0.01939 20984 ft 395 kts 178°
2026-05-05 12:52 50.60265 -0.01837 21625 ft 400 kts 178°
2026-05-05 12:52 50.57463 -0.01734 22334 ft 404 kts 179°
2026-05-05 12:52 50.54684 -0.01631 23047 ft 407 kts 179°
2026-05-05 12:52 50.51840 -0.01527 23692 ft 411 kts 179°
2026-05-05 12:53 50.48971 -0.01421 24338 ft 412 kts 179°
2026-05-05 12:53 50.46103 -0.01316 25046 ft 412 kts 179°
2026-05-05 12:53 50.43237 -0.01211 25749 ft 411 kts 178°
2026-05-05 12:53 50.40366 -0.01105 26369 ft 412 kts 178°
2026-05-05 12:54 50.34577 -0.00893 27402 ft 420 kts 178°
2026-05-05 12:54 50.31641 -0.00786 27940 ft 423 kts 178°
2026-05-05 12:54 50.28730 -0.00680 28519 ft 424 kts 178°
2026-05-05 12:55 50.25773 -0.00572 29052 ft 426 kts 178°
2026-05-05 12:55 50.22792 -0.00464 29549 ft 429 kts 178°
2026-05-05 12:55 50.19801 -0.00355 30060 ft 430 kts 178°
2026-05-05 12:55 50.16820 -0.00247 30716 ft 426 kts 178°
2026-05-05 12:56 50.13875 -0.00141 31403 ft 421 kts 178°
2026-05-05 12:56 50.10950 -0.00007 31913 ft 420 kts 176°
2026-05-05 12:56 50.08050 0.00626 32310 ft 422 kts 167°
2026-05-05 12:56 50.05205 0.01750 32794 ft 421 kts 166°
2026-05-05 12:57 50.02378 0.02906 33317 ft 419 kts 166°
2026-05-05 12:57 49.99561 0.04055 33797 ft 418 kts 166°
2026-05-05 12:57 49.96744 0.05190 34169 ft 418 kts 166°
2026-05-05 12:57 49.93963 0.06295 34542 ft 417 kts 166°
2026-05-05 12:58 49.91155 0.07401 34893 ft 417 kts 166°
2026-05-05 12:58 49.85452 0.09630 34926 ft 425 kts 166°
2026-05-05 12:59 49.79750 0.11851 34917 ft 419 kts 166°
2026-05-05 12:59 49.74102 0.14048 34924 ft 417 kts 166°
2026-05-05 13:00 49.65672 0.17338 34913 ft 416 kts 166°
2026-05-05 13:01 49.54522 0.21875 34915 ft 415 kts 166°
2026-05-05 13:01 49.48928 0.24137 34915 ft 416 kts 165°
2026-05-05 13:02 49.43325 0.26394 34912 ft 416 kts 165°
2026-05-05 13:02 49.37713 0.28649 34912 ft 417 kts 165°
2026-05-05 13:03 49.32090 0.30902 34912 ft 417 kts 165°
2026-05-05 13:03 49.26484 0.33209 34915 ft 417 kts 164°
2026-05-05 13:04 49.20883 0.35580 34891 ft 417 kts 164°
2026-05-05 13:04 49.15282 0.37943 34892 ft 417 kts 164°
2026-05-05 13:05 49.09679 0.40292 34889 ft 417 kts 164°
2026-05-05 13:05 49.04086 0.42628 34887 ft 417 kts 163°
2026-05-05 13:06 48.98524 0.44946 34873 ft 417 kts 163°
2026-05-05 13:06 48.92927 0.47272 34888 ft 416 kts 163°
2026-05-05 13:07 48.87332 0.49593 34881 ft 417 kts 163°
2026-05-05 13:07 48.81739 0.51909 34879 ft 417 kts 163°
2026-05-05 13:08 48.76123 0.54194 34881 ft 417 kts 164°
2026-05-05 13:08 48.70484 0.56388 34876 ft 418 kts 165°
2026-05-05 13:09 48.64877 0.58565 34880 ft 419 kts 164°
2026-05-05 13:09 48.59224 0.60767 34870 ft 420 kts 164°
2026-05-05 13:10 48.53565 0.62969 34868 ft 420 kts 164°
2026-05-05 13:10 48.47905 0.65218 34869 ft 421 kts 163°
2026-05-05 13:11 48.42244 0.67534 34869 ft 421 kts 163°
2026-05-05 13:11 48.36581 0.69840 34857 ft 422 kts 163°
2026-05-05 13:12 48.30943 0.72122 34858 ft 422 kts 163°
2026-05-05 13:12 48.25252 0.74418 34847 ft 423 kts 163°
2026-05-05 13:13 48.19557 0.76675 34848 ft 423 kts 164°
2026-05-05 13:13 48.13858 0.78911 34851 ft 423 kts 164°
2026-05-05 13:14 48.08157 0.81146 34834 ft 423 kts 164°
2026-05-05 13:14 48.02491 0.83367 34844 ft 423 kts 164°
2026-05-05 13:15 47.96781 0.85601 34822 ft 424 kts 164°
2026-05-05 13:15 47.91069 0.87830 34834 ft 424 kts 164°
2026-05-05 13:16 47.85350 0.90057 34830 ft 425 kts 164°
2026-05-05 13:16 47.79619 0.92280 34844 ft 425 kts 165°
2026-05-05 13:17 47.73890 0.94495 34837 ft 425 kts 165°
2026-05-05 13:17 47.68160 0.96706 34836 ft 426 kts 165°
2026-05-05 13:18 47.62420 0.98917 34848 ft 426 kts 165°
2026-05-05 13:18 47.56701 1.01115 34832 ft 427 kts 165°
2026-05-05 13:19 47.50939 1.03325 34844 ft 427 kts 165°
2026-05-05 13:19 47.45185 1.05525 34845 ft 427 kts 165°
2026-05-05 13:20 47.39292 1.06470 34857 ft 428 kts 180°
2026-05-05 13:20 47.33330 1.06258 34865 ft 429 kts 180°
2026-05-05 13:21 47.27392 1.06062 34859 ft 429 kts 180°
2026-05-05 13:21 47.21436 1.05915 34856 ft 428 kts 180°
2026-05-05 13:22 47.15483 1.05784 34865 ft 427 kts 180°
2026-05-05 13:22 47.09551 1.05654 34855 ft 426 kts 180°
2026-05-05 13:23 47.03630 1.05523 34860 ft 425 kts 180°
2026-05-05 13:23 46.97762 1.05325 34860 ft 425 kts 181°
2026-05-05 13:24 46.91837 1.05050 34863 ft 425 kts 181°
2026-05-05 13:24 46.85929 1.04779 34860 ft 425 kts 181°
2026-05-05 13:25 46.80002 1.04520 34860 ft 426 kts 181°
2026-05-05 13:25 46.74072 1.04264 34866 ft 426 kts 181°
2026-05-05 13:26 46.68139 1.04009 34862 ft 427 kts 181°
2026-05-05 13:26 46.62227 1.03755 34869 ft 427 kts 181°
2026-05-05 13:27 46.56293 1.03501 34870 ft 427 kts 182°
2026-05-05 13:27 46.50345 1.03257 34873 ft 427 kts 181°
2026-05-05 13:28 46.44393 1.03177 34873 ft 427 kts 180°
2026-05-05 13:28 46.38483 1.03149 34876 ft 427 kts 180°
2026-05-05 13:29 46.32532 1.03106 34875 ft 427 kts 180°
2026-05-05 13:29 46.26583 1.03049 34880 ft 428 kts 180°
2026-05-05 13:30 46.20631 1.02989 34881 ft 428 kts 180°
2026-05-05 13:30 46.14682 1.02929 34889 ft 427 kts 181°
2026-05-05 13:31 46.08733 1.02869 34893 ft 427 kts 181°
2026-05-05 13:31 46.02783 1.02810 34901 ft 427 kts 181°
2026-05-05 13:32 45.96841 1.02751 34912 ft 427 kts 181°
2026-05-05 13:32 45.90923 1.02692 34909 ft 427 kts 181°
2026-05-05 13:33 45.84967 1.02633 34910 ft 428 kts 181°
2026-05-05 13:33 45.79024 1.03124 34915 ft 429 kts 171°
2026-05-05 13:34 45.74146 1.04408 34911 ft 429 kts 171°
2026-05-05 13:34 45.68260 1.05990 34909 ft 429 kts 171°
2026-05-05 13:35 45.62372 1.07525 34913 ft 430 kts 171°
2026-05-05 13:35 45.56509 1.09025 34904 ft 430 kts 172°
2026-05-05 13:36 45.50612 1.10525 34915 ft 430 kts 172°
2026-05-05 13:36 45.44711 1.12023 34916 ft 430 kts 172°
2026-05-05 13:37 45.38811 1.13519 34914 ft 431 kts 172°
2026-05-05 13:37 45.32903 1.15014 34914 ft 430 kts 172°
2026-05-05 13:38 45.27041 1.16495 34914 ft 430 kts 172°
2026-05-05 13:38 45.21147 1.17980 34927 ft 429 kts 172°
2026-05-05 13:39 45.15239 1.18918 34929 ft 425 kts 184°
2026-05-05 13:39 45.09424 1.17762 34933 ft 421 kts 193°
2026-05-05 13:40 45.03648 1.16211 34929 ft 423 kts 193°
2026-05-05 13:40 44.97857 1.14685 34916 ft 422 kts 193°
2026-05-05 13:41 44.92113 1.13205 34928 ft 422 kts 192°
2026-05-05 13:41 44.86333 1.11730 34928 ft 422 kts 192°
2026-05-05 13:42 44.80554 1.10260 34920 ft 421 kts 192°
2026-05-05 13:42 44.74788 1.08796 34924 ft 421 kts 192°
2026-05-05 13:43 44.69026 1.07336 34928 ft 421 kts 192°
2026-05-05 13:43 44.63259 1.05877 34925 ft 421 kts 192°
2026-05-05 13:44 44.57533 1.04432 34933 ft 420 kts 192°
2026-05-05 13:44 44.51773 1.02981 34927 ft 420 kts 192°
2026-05-05 13:45 44.46012 1.01532 34925 ft 420 kts 192°
2026-05-05 13:45 44.40259 1.00089 34922 ft 420 kts 193°
2026-05-05 13:46 44.34507 0.98648 34931 ft 419 kts 193°
2026-05-05 13:46 44.28809 0.97224 34929 ft 418 kts 193°
2026-05-05 13:47 44.23083 0.95796 34932 ft 418 kts 193°
2026-05-05 13:47 44.17352 0.94369 34924 ft 417 kts 193°
2026-05-05 13:48 44.11649 0.92952 34946 ft 416 kts 193°
2026-05-05 13:48 44.05944 0.91537 34940 ft 416 kts 193°
2026-05-05 13:49 44.00238 0.90124 34934 ft 415 kts 193°
2026-05-05 13:49 43.94592 0.88729 34944 ft 414 kts 193°
2026-05-05 13:50 43.88900 0.87326 34938 ft 415 kts 193°
2026-05-05 13:50 43.83229 0.85843 34934 ft 415 kts 194°
2026-05-05 13:51 43.77568 0.84307 34929 ft 414 kts 194°
2026-05-05 13:51 43.71916 0.82781 34942 ft 414 kts 194°
2026-05-05 13:52 43.66256 0.81264 34941 ft 414 kts 194°
2026-05-05 13:52 43.60641 0.79766 34940 ft 414 kts 194°
2026-05-05 13:53 43.54987 0.78262 34945 ft 413 kts 194°
2026-05-05 13:53 43.49339 0.76762 34949 ft 413 kts 194°
2026-05-05 13:54 43.43689 0.75263 34955 ft 414 kts 194°
2026-05-05 13:54 43.38031 0.73767 34948 ft 413 kts 194°
2026-05-05 13:55 43.32420 0.72285 34954 ft 413 kts 194°
2026-05-05 13:55 43.26785 0.70799 34954 ft 412 kts 194°
2026-05-05 13:56 43.21141 0.69314 34949 ft 412 kts 195°
2026-05-05 13:56 43.15514 0.67837 34952 ft 411 kts 195°
2026-05-05 13:57 43.09903 0.66366 34960 ft 411 kts 195°
2026-05-05 13:57 43.04278 0.64894 34951 ft 410 kts 195°
2026-05-05 13:58 42.98717 0.63442 34947 ft 408 kts 195°
2026-05-05 13:58 42.93148 0.61991 34937 ft 405 kts 195°
2026-05-05 13:59 42.84845 0.59830 34940 ft 405 kts 195°
2026-05-05 14:00 42.77485 0.57919 34924 ft 404 kts 195°
2026-05-05 14:00 42.71046 0.56243 34918 ft 405 kts 197°
2026-05-05 14:01 42.65814 0.53668 34962 ft 399 kts 208°
2026-05-05 14:01 42.60785 0.50395 34903 ft 401 kts 209°
2026-05-05 14:02 42.55743 0.47140 34938 ft 402 kts 208°
2026-05-05 14:02 42.50684 0.43902 34889 ft 401 kts 208°
2026-05-05 14:03 42.45631 0.40684 34931 ft 401 kts 208°
2026-05-05 14:03 42.40582 0.37475 34926 ft 401 kts 208°
2026-05-05 14:04 42.35551 0.34283 34908 ft 402 kts 208°
2026-05-05 14:04 42.30487 0.31074 34907 ft 401 kts 208°
2026-05-05 14:05 42.25440 0.27882 34925 ft 400 kts 208°
2026-05-05 14:05 42.20380 0.24687 34902 ft 401 kts 208°
2026-05-05 14:06 42.15368 0.21529 34905 ft 398 kts 208°
2026-05-05 14:06 42.10350 0.18372 34915 ft 396 kts 208°
2026-05-05 14:07 42.05196 0.15698 34913 ft 400 kts 199°
2026-05-05 14:07 41.99680 0.14650 34942 ft 403 kts 192°
2026-05-05 14:08 41.94098 0.13862 34924 ft 403 kts 192°
2026-05-05 14:08 41.88517 0.13053 34909 ft 402 kts 192°
2026-05-05 14:09 41.82955 0.12229 34911 ft 400 kts 192°
2026-05-05 14:09 41.77427 0.11403 34890 ft 399 kts 192°
2026-05-05 14:10 41.71954 0.10586 34917 ft 397 kts 193°
2026-05-05 14:10 41.66457 0.09765 34916 ft 397 kts 192°
2026-05-05 14:11 41.60957 0.08947 34924 ft 397 kts 192°
2026-05-05 14:11 41.55463 0.08131 34902 ft 397 kts 193°
2026-05-05 14:12 41.50009 0.07322 34920 ft 397 kts 193°
2026-05-05 14:12 41.44512 0.06508 34926 ft 398 kts 193°
2026-05-05 14:13 41.39006 0.05694 34918 ft 398 kts 193°
2026-05-05 14:13 41.33495 0.04881 34895 ft 397 kts 193°
2026-05-05 14:14 41.28035 0.04078 34910 ft 396 kts 193°
2026-05-05 14:14 41.22560 0.03273 34914 ft 395 kts 193°
2026-05-05 14:15 41.17095 0.02470 34920 ft 394 kts 193°
2026-05-05 14:15 41.11641 0.01671 34900 ft 393 kts 193°
2026-05-05 14:16 41.06219 0.00880 34915 ft 392 kts 193°
2026-05-05 14:16 41.00833 0.00098 34914 ft 391 kts 193°
2026-05-05 14:17 40.95424 -0.00687 34926 ft 391 kts 193°
2026-05-05 14:17 40.90005 -0.01473 34880 ft 392 kts 193°
2026-05-05 14:18 40.84567 -0.02260 34905 ft 394 kts 193°
2026-05-05 14:18 40.79110 -0.03048 34918 ft 396 kts 193°
2026-05-05 14:19 40.73625 -0.03838 34914 ft 398 kts 193°
2026-05-05 14:19 40.68108 -0.04633 34918 ft 399 kts 193°
2026-05-05 14:20 40.62616 -0.05422 34916 ft 400 kts 193°
2026-05-05 14:20 40.57077 -0.06221 34930 ft 400 kts 194°
2026-05-05 14:21 40.51759 -0.07929 34981 ft 390 kts 203°
2026-05-05 14:21 40.47429 -0.09682 34935 ft 392 kts 203°
2026-05-05 14:22 40.42210 -0.11758 34941 ft 390 kts 202°
2026-05-05 14:22 40.36999 -0.13819 34961 ft 389 kts 203°
2026-05-05 14:23 40.31802 -0.15863 34951 ft 389 kts 202°
2026-05-05 14:23 40.26613 -0.17901 34956 ft 389 kts 202°
2026-05-05 14:24 40.21479 -0.19923 34951 ft 386 kts 203°
2026-05-05 14:24 40.16337 -0.21957 34948 ft 386 kts 203°
2026-05-05 14:25 40.11192 -0.23991 34940 ft 386 kts 204°
2026-05-05 14:25 40.06046 -0.26021 34908 ft 386 kts 203°
2026-05-05 14:26 40.00890 -0.28048 34892 ft 387 kts 204°
2026-05-05 14:26 39.95769 -0.30041 34902 ft 387 kts 203°
2026-05-05 14:27 39.90606 -0.32019 34887 ft 386 kts 203°
2026-05-05 14:27 39.85446 -0.34014 34903 ft 386 kts 204°
2026-05-05 14:28 39.80270 -0.36041 34112 ft 392 kts 204°
2026-05-05 14:28 39.77668 -0.37051 33424 ft 388 kts 204°
2026-05-05 14:28 39.75085 -0.38050 32715 ft 385 kts 204°
2026-05-05 14:29 39.72538 -0.39034 32126 ft 379 kts 205°
2026-05-05 14:29 39.70057 -0.39993 31596 ft 372 kts 205°
2026-05-05 14:29 39.67585 -0.40949 31042 ft 368 kts 205°
2026-05-05 14:29 39.65144 -0.41896 30492 ft 364 kts 205°
2026-05-05 14:30 39.62732 -0.42830 29960 ft 359 kts 205°
2026-05-05 14:30 39.60344 -0.43755 29373 ft 354 kts 206°
2026-05-05 14:30 39.57999 -0.44662 28845 ft 348 kts 206°
2026-05-05 14:30 39.55727 -0.45541 28298 ft 342 kts 206°
2026-05-05 14:31 39.53465 -0.46416 27781 ft 338 kts 206°
2026-05-05 14:31 39.51222 -0.47282 27308 ft 333 kts 206°
2026-05-05 14:31 39.49011 -0.48134 26749 ft 331 kts 206°
2026-05-05 14:31 39.46800 -0.48963 26274 ft 328 kts 205°
2026-05-05 14:32 39.44598 -0.49755 25738 ft 327 kts 205°
2026-05-05 14:32 39.42410 -0.50531 25256 ft 325 kts 205°
2026-05-05 14:32 39.40227 -0.51305 24768 ft 325 kts 205°
2026-05-05 14:32 39.38041 -0.52083 24280 ft 326 kts 205°
2026-05-05 14:33 39.35847 -0.52866 23801 ft 329 kts 205°
2026-05-05 14:33 39.33614 -0.53668 23212 ft 338 kts 204°
2026-05-05 14:33 39.31330 -0.54486 22682 ft 341 kts 204°
2026-05-05 14:33 39.29075 -0.55288 22140 ft 339 kts 204°
2026-05-05 14:34 39.26815 -0.56087 21663 ft 334 kts 204°
2026-05-05 14:34 39.24585 -0.56876 21143 ft 331 kts 204°
2026-05-05 14:34 39.22373 -0.57660 20668 ft 327 kts 204°
2026-05-05 14:34 39.20190 -0.58435 20197 ft 324 kts 203°
2026-05-05 14:35 39.18026 -0.59203 19724 ft 321 kts 203°
2026-05-05 14:35 39.15877 -0.59967 19252 ft 319 kts 203°
2026-05-05 14:35 39.13747 -0.60723 18798 ft 316 kts 203°
2026-05-05 14:35 39.11634 -0.61473 18316 ft 314 kts 202°
2026-05-05 14:36 39.09530 -0.62220 17837 ft 313 kts 202°
2026-05-05 14:36 39.07440 -0.62957 17313 ft 310 kts 202°
2026-05-05 14:36 39.05366 -0.63689 16890 ft 307 kts 202°
2026-05-05 14:36 39.03303 -0.64423 16405 ft 306 kts 202°
2026-05-05 14:37 39.01260 -0.65148 15953 ft 304 kts 202°
2026-05-05 14:37 38.99220 -0.65870 15497 ft 303 kts 202°
2026-05-05 14:37 38.97196 -0.66586 15050 ft 301 kts 202°
2026-05-05 14:37 38.95174 -0.67301 14609 ft 300 kts 202°
2026-05-05 14:38 38.93160 -0.68012 14132 ft 301 kts 202°
2026-05-05 14:38 38.91165 -0.68717 13665 ft 301 kts 202°
2026-05-05 14:38 38.89143 -0.69431 13147 ft 300 kts 201°
2026-05-05 14:38 38.87135 -0.70139 12653 ft 299 kts 201°
2026-05-05 14:39 38.85135 -0.70845 12210 ft 297 kts 200°
2026-05-05 14:39 38.83136 -0.71548 11710 ft 298 kts 200°
2026-05-05 14:39 38.81134 -0.72251 11269 ft 297 kts 200°
2026-05-05 14:39 38.79139 -0.72952 10774 ft 298 kts 199°
2026-05-05 14:40 38.77144 -0.73653 10357 ft 296 kts 199°
2026-05-05 14:40 38.75198 -0.74334 10219 ft 285 kts 199°
2026-05-05 14:40 38.73314 -0.74993 10046 ft 275 kts 199°
2026-05-05 14:40 38.71505 -0.75626 9934 ft 265 kts 199°
2026-05-05 14:41 38.69732 -0.76248 9562 ft 265 kts 198°
2026-05-05 14:41 38.67961 -0.76871 9236 ft 263 kts 198°
2026-05-05 14:41 38.66218 -0.77482 8870 ft 263 kts 198°
2026-05-05 14:41 38.64450 -0.78102 8504 ft 263 kts 198°
2026-05-05 14:42 38.62682 -0.78721 8175 ft 263 kts 198°
2026-05-05 14:42 38.60918 -0.79339 7834 ft 263 kts 198°
2026-05-05 14:42 38.59153 -0.79956 7513 ft 262 kts 198°
2026-05-05 14:42 38.57394 -0.80570 7193 ft 262 kts 198°
2026-05-05 14:43 38.55669 -0.81170 7107 ft 251 kts 198°
2026-05-05 14:43 38.54049 -0.81874 6922 ft 242 kts 214°
2026-05-05 14:43 38.52891 -0.83322 6878 ft 226 kts 231°
2026-05-05 14:43 38.51863 -0.84834 6774 ft 227 kts 230°
2026-05-05 14:44 38.50812 -0.86282 6683 ft 217 kts 227°
2026-05-05 14:44 38.49772 -0.87599 6584 ft 203 kts 225°
2026-05-05 14:44 38.48760 -0.88776 6489 ft 190 kts 223°
2026-05-05 14:44 38.47782 -0.89826 6501 ft 179 kts 222°
2026-05-05 14:45 38.46802 -0.90802 6427 ft 180 kts 220°
2026-05-05 14:45 38.45840 -0.91713 6378 ft 169 kts 219°
2026-05-05 14:45 38.44911 -0.92546 6269 ft 159 kts 218°
2026-05-05 14:45 38.43963 -0.93336 6249 ft 164 kts 215°
2026-05-05 14:46 38.42975 -0.94080 6152 ft 164 kts 212°
2026-05-05 14:46 38.41973 -0.94743 6089 ft 159 kts 208°
2026-05-05 14:46 38.40980 -0.95337 6030 ft 159 kts 208°
2026-05-05 14:46 38.39961 -0.95932 5961 ft 162 kts 206°
2026-05-05 14:47 38.38937 -0.96475 5890 ft 156 kts 204°
2026-05-05 14:47 38.37946 -0.96964 5814 ft 150 kts 205°
2026-05-05 14:47 38.36970 -0.97447 5738 ft 152 kts 202°
2026-05-05 14:47 38.35917 -0.97631 5682 ft 155 kts 178°
2026-05-05 14:48 38.34880 -0.97212 5582 ft 160 kts 154°
2026-05-05 14:48 38.34070 -0.96272 5564 ft 164 kts 127°
2026-05-05 14:48 38.33607 -0.94903 5428 ft 170 kts 104°
2026-05-05 14:48 38.33386 -0.93435 5208 ft 171 kts 102°
2026-05-05 14:49 38.33188 -0.91970 5025 ft 162 kts 102°
2026-05-05 14:49 38.33003 -0.90603 4798 ft 151 kts 103°
2026-05-05 14:49 38.32834 -0.89334 4647 ft 144 kts 101°
2026-05-05 14:49 38.32680 -0.88045 4432 ft 149 kts 99°
2026-05-05 14:50 38.32532 -0.86752 4229 ft 145 kts 102°
2026-05-05 14:50 38.32372 -0.85494 4121 ft 149 kts 104°
2026-05-05 14:50 38.32198 -0.84212 3970 ft 146 kts 102°
2026-05-05 14:50 38.32018 -0.82912 3834 ft 149 kts 107°
2026-05-05 14:51 38.31842 -0.81647 3831 ft 144 kts 105°
2026-05-05 14:51 38.31657 -0.80341 3651 ft 151 kts 103°
2026-05-05 14:51 38.31480 -0.79070 3470 ft 142 kts 104°
2026-05-05 14:51 38.31306 -0.77839 3276 ft 141 kts 105°
2026-05-05 14:52 38.31136 -0.76641 3109 ft 141 kts 107°
2026-05-05 14:52 38.30951 -0.75414 2931 ft 141 kts 105°
2026-05-05 14:52 38.30789 -0.74214 2753 ft 134 kts 104°
2026-05-05 14:52 38.30628 -0.73044 2550 ft 133 kts 106°
2026-05-05 14:53 38.30462 -0.71905 2387 ft 132 kts 104°
2026-05-05 14:53 38.30313 -0.70748 2219 ft 132 kts 104°
2026-05-05 14:53 38.30150 -0.69608 2045 ft 129 kts 104°
2026-05-05 14:53 38.29990 -0.68487 1871 ft 130 kts 105°
2026-05-05 14:54 38.29832 -0.67369 1708 ft 128 kts 104°
2026-05-05 14:54 38.29671 -0.66232 1535 ft 132 kts 105°
2026-05-05 14:54 38.29513 -0.65090 1349 ft 130 kts 106°
2026-05-05 14:54 38.29355 -0.63962 1174 ft 130 kts 107°
2026-05-05 14:55 38.29196 -0.62834 1034 ft 131 kts 104°
2026-05-05 14:55 38.29037 -0.61689 880 ft 130 kts 105°
2026-05-05 14:55 38.28877 -0.60540 685 ft 130 kts 103°
2026-05-05 14:55 38.28720 -0.59408 481 ft 128 kts 105°
2026-05-05 14:56 38.28565 -0.58293 316 ft 129 kts 104°
2026-05-05 14:56 38.28414 -0.57165 163 ft 128 kts 105°
2026-05-05 14:56 38.28260 -0.56158 111 ft 99 kts 99°
2026-05-05 14:56 38.28171 -0.55486 95 ft 55 kts 98°
2026-05-05 14:57 38.28131 -0.55175 81 ft 27 kts 101°
2026-05-05 14:57 38.28135 -0.54954 77 ft 25 kts 73°
2026-05-05 14:57 38.28185 -0.54756 61 ft 22 kts 70°
2026-05-05 14:57 38.28262 -0.54777 70 ft 16 kts 264°
2026-05-05 14:58 38.28270 -0.54917 70 ft 16 kts 277°
2026-05-05 14:58 38.28288 -0.55051 83 ft 15 kts 281°
2026-05-05 14:58 38.28306 -0.55179 84 ft 14 kts 282°
2026-05-05 14:58 38.28382 -0.55168 86 ft 14 kts 41°
2026-05-05 14:59 38.28443 -0.55219 89 ft 13 kts 281°
2026-05-05 14:59 38.28458 -0.55332 91 ft 13 kts 280°
2026-05-05 14:59 38.28473 -0.55443 93 ft 13 kts 281°
2026-05-05 14:59 38.28499 -0.55529 96 ft 8 kts 341°
2026-05-05 15:00 38.28550 -0.55509 91 ft 9 kts
2026-05-05 15:00 38.28572 -0.55504 90 ft 0 kts 11°